Location: Clyde
(45.1830°S, 169.3170°E)
Time: 02:55:15
(UTC+13:00)

Cosmos 2278 Rocket - Pass Details

Date: 24 January 2019
Orbit: 839 x 847 km, 71.0° (Epoch: 22 February)

Event Time Altitude Azimuth Distance (km) Brightness Sun altitude
Rises 23:27:24 0° 200° (SSW) 3,433 6.8 -17.4°
Reaches altitude 10° 23:30:17 10° 187° (S) 2,492 5.6 -17.7°
Maximum altitude 23:35:03 26° 130° (SE) 1,609 3.7 -18.2°
Enters shadow 23:38:16 16° 85° (E) 2,057 3.9 -18.5°
